Preview of NWS' New Version of Forecast
This preview is not operational and should not be used for support decisions.

Regional Weather Roundup (RWR)

Issued by Gray - Portland, ME (GYX)

                            
988 
ASUS41 KGYX 260010
RWRGYX
WEATHER ROUNDUP FOR MAINE AND NEW HAMPSHIRE
NATIONAL WEATHER SERVICE GRAY ME
800 PM EDT MON MAR 25 2019

MEZ002-005-006-010-012-015-018-020-021-024-026-027-029-260100-
MAINE
  
CITY           SKY/WX    TMP DP  RH WIND       PRES   REMARKS
PORTLAND       FAIR      35   2  24 W9        30.05R                  
6HR MIN TEMP:  35; 6HR MAX TEMP:  44;                                

SANFORD        FAIR      28   9  44 CALM      30.05R                  
BAR HARBOR     FAIR      29   6  38 CALM      30.03R                  
WISCASSET      FAIR      30   7  37 NW3       30.06R                  
6HR MIN TEMP:  30; 6HR MAX TEMP:  42;                                

ROCKLAND       FAIR      31   8  38 CALM      30.04R                  
FRYEBURG       FAIR      27  -1  30 CALM      30.04R                  
6HR MIN TEMP:  27; 6HR MAX TEMP:  38;                                

LEWISTONAUBURN FAIR      32   1  26 NW5       30.04R                  
AUGUSTA        FAIR      32  -1  24 W7        30.04R                  
6HR MIN TEMP:  32; 6HR MAX TEMP:  38;                                

WATERVILLE     FAIR      31   1  28 NW3       30.01R                  
BANGOR         FAIR      30   1  29 SW3       30.02R                  
6HR MIN TEMP:  29; 6HR MAX TEMP:  37;                                

GREENVILLE       N/A     21  -2  36 VRB5      29.93R                  
6HR MIN TEMP:  21; 6HR MAX TEMP:  29;                                

MILLINOCKET    FAIR      25   3  38 CALM      30.01R                  
6HR MIN TEMP:  25; 6HR MAX TEMP:  32;                                

HOULTON        FAIR      24   0  35 W6        29.96R                  
6HR MIN TEMP:  24; 6HR MAX TEMP:  29;                                

PRESQUE ISLE   FAIR      24   2  38 W8        29.95R                  
6HR MIN TEMP:  23; 6HR MAX TEMP:  27;                                

FRENCHVILLE    CLOUDY    23   8  52 W16G25    29.88R WCI  10          
6HR MIN TEMP:  23; 6HR MAX TEMP:  26;                                

CARIBOU        FAIR      23   0  36 W7        29.92R                  
6HR MIN TEMP:  23; 6HR MAX TEMP:  27;                                

$$

NHZ002-005-008-009-011-012-014-260100-
NEW HAMPSHIRE
  
CITY           SKY/WX    TMP DP  RH WIND       PRES   REMARKS
PORTSMOUTH     MOCLDY    38  -3  17 NW3       30.03R                  
ROCHESTER      FAIR      35   0  22 NW6       30.03R                  
6HR MIN TEMP:  35; 6HR MAX TEMP:  43;                                

NASHUA         FAIR      38   1  21 W3        30.04S                  
MANCHESTER     FAIR      41   2  19 W3        30.03R                  
6HR MIN TEMP:  41; 6HR MAX TEMP:  46;                                

CONCORD        FAIR      35   4  27 N5        30.03S                  
6HR MIN TEMP:  35; 6HR MAX TEMP:  43;                                

LACONIA        FAIR      32   9  38 W3        30.03R                  
PLYMOUTH       FAIR      29   5  36 CALM      30.03R                  
BERLIN         FAIR      27  -4  26 VRB7      30.00R                  
6HR MIN TEMP:  27; 6HR MAX TEMP:  32;                                

WHITEFIELD     FAIR      28  -2  27 NW3       30.02R                  
6HR MIN TEMP:  28; 6HR MAX TEMP:  33;                                

JAFFREY        FAIR      30  16  56 CALM      30.01S                  
6HR MIN TEMP:  30; 6HR MAX TEMP:  43;                                

KEENE          FAIR      32  11  41 SW3       30.04R                  
LEBANON        FAIR      30  10  43 CALM      30.03R                  
6HR MIN TEMP:  30; 6HR MAX TEMP:  41;                                

MT WASHINGTON  PTCLDY     1  -8  66 W63         N/A  WCI -32          
                   6HR MAX TEMP:   4;                                

$$

VTZ005-007-008-260100-
VERMONT
  
CITY           SKY/WX    TMP DP  RH WIND       PRES   REMARKS
ST JOHNSBURY     N/A     28   2  32 MISG      30.03R                  
MONTPELIER     FAIR      26   1  34 CALM      30.06R                  
BURLINGTON     FAIR      32   1  26 NE5       30.08R                  
$$

MAZ007-012-024-CTZ003-RIZ002-NYZ038-NYZ072-260100-
SOUTHERN NEW ENGLAND AND NY
  
CITY           SKY/WX    TMP DP  RH WIND       PRES   REMARKS
BOSTON         MOCLDY    39  19  44 SE8       30.05R                  
WORCESTER      FAIR      37   3  24 NW5       30.01S                  
NANTUCKET      FAIR      36  28  73 E7        30.05S                  
PROVIDENCE     CLOUDY    42  32  67 SE7       30.04R                  
HARTFORD       MOCLDY    42   5  21 NW12      30.06R                  
ALBANY         FAIR      36   4  26 W10       30.10R                  
NEW YORK CITY  LGT RAIN  48  27  44 N7        30.07R                  
$$

ANZ081-ANZ082-ANZ150-NHZ014-MEZ023>029-260100-
COASTAL MARINE OBSERVATIONS
  
STATION/POSITION TIME  TEMP    WIND        PRES    WAVE
                       AIR SEA DIR/SP/G            HT/PER
                 (UTC) (F)     (DEG/KT/KT) (MB)    (FT/S)
MOUNT DESERT ROC 0000   36     240/ 16/ 18 1016.9R
MATINICUS ROCK   2300   36     250/ 15/ 16 1015.7R
ISLE OF SHOALS   2300   42     310/ 11/ 12 1016.7R
CASHES LEDGE BUO 2350   38 40              1017.2R   2/ 7
$$

.............KEY..............
   WCI - WIND CHILL
   TC  - TEMPERATURE IN CELSIUS
   VSB - VISIBILITY IN MILES
   HX  - HEAT INDEX
   FAIR- INDICATES FEW OR NO CLOUDS BELOW 12,000 FT, WITH NO 
         SIGNIFICANT WEATHER AND/OR OBSTRUCTIONS TO VISIBILITY.